# Land Stadt Wetter Temperatur Luftdruck Luftfeuchtigkeit Sichtweite Windgeschwindigkeit Windrichtung Ortszeit
1 ad Andorra la Vella Clouds 18 1024 64 10000 5 261 02.08.2018 14:22
2 ae Dubai Clear 42 1004 3 10000 26 90 02.08.2018 14:21
3 af Kabul Clear 19 1013 13 10000 10 10 02.08.2018 14:21
4 ar Buenos Aires Clear 16 1010 61 10000 6 240 02.08.2018 14:22
5 ar Esquel Rain 5 1001 98 260 7 263 02.08.2018 14:22
6 ar Ushuaia Drizzle 4 992 81 10000 28 240 02.08.2018 14:22
7 at Innsbruck Clear 21 1022 54 10000 4 0 02.08.2018 14:23
8 at Wien Clouds 21 1025 66 10000 30 140 02.08.2018 14:22
9 au Alice Springs Clouds 23 1016 46 10000 15 120 02.08.2018 14:21
10 au Darwin Clear 28 1010 79 10000 6 10 02.08.2018 14:22
11 au Perth Clear 15 1022 56 10000 19 210 02.08.2018 14:21
12 au Sydney Rain 17 1012 91 10000 15 10 02.08.2018 14:22
13 bg Sofia Clear 20 1028 40 10000 8 113 02.08.2018 14:21
14 bg Warna Clear 22 1024 69 10000 19 130 02.08.2018 14:21
15 bo La Paz Clouds 9 1039 24 8000 4 0 02.08.2018 14:22
16 bo Potisi Clear -1 1037 59 10000 6 240 02.08.2018 14:22
17 br Manaus Clear 30 1012 62 10000 9 70 02.08.2018 14:21
18 br Rio de Janeiro Rain 24 1011 88 6000 9 340 02.08.2018 14:22
19 bs Nassau Clouds 27 1017 69 10000 17 40 02.08.2018 14:22
20 ca Montreal Clouds 15 1010 83 10000 20 180 02.08.2018 14:22
21 cd Kisangani Clouds 22 1009 93 10000 4 266 02.08.2018 14:23
22 ch Andermatt Clouds 19 1023 53 10000 5 167 02.08.2018 14:23
23 ch Bern Clouds 18 1026 69 10000 6 279 02.08.2018 14:23
24 ck Avarua Clouds 23 1018 88 10000 11 90 02.08.2018 14:22
25 cl Santiago Clouds 17 1006 49 8000 0 0 02.08.2018 14:23
26 cn Lhasa Clouds 16 1003 39 10000 7 212 02.08.2018 14:22
27 cn Peking Clear 12 1020 39 10000 16 191 02.08.2018 14:23
28 cn Shanghai Clear 18 1019 64 10000 13 20 02.08.2018 14:21
29 de Berlin Clear 16 1024 62 10000 9 210 02.08.2018 14:21
30 de Braunschweig Clear 17 1023 59 10000 15 250 02.08.2018 14:21
31 de Bremen Clear 17 1020 69 10000 24 220 02.08.2018 14:22
32 de Dresden Clear 18 1016 63 10000 9 230 02.08.2018 14:22
33 de Emden Clouds 17 1018 73 10000 32 225 02.08.2018 14:21
34 de Flensburg Clouds 15 1017 77 10000 32 230 02.08.2018 14:21
35 de Frankfurt Clear 18 1024 57 10000 4 0 02.08.2018 14:22
36 de Freiburg Clouds 19 1022 72 10000 8 259 02.08.2018 14:22
37 de Hamburg Clouds 16 1021 66 10000 26 220 02.08.2018 14:21
38 de Hannover Clear 16 1024 61 10000 17 210 02.08.2018 14:21
39 de Helgoland Clouds 14 1018 82 10000 47 224 02.08.2018 14:22
40 de Hiddensee Clear 15 1020 62 10000 31 221 02.08.2018 14:21
41 de Kassel Clouds 15 1024 55 10000 13 210 02.08.2018 14:21
42 de Köln Clear 17 1022 60 10000 6 0 02.08.2018 14:21
43 de Magdeburg Clouds 17 1022 37 10000 12 234 02.08.2018 14:22
44 de München Clouds 15 1023 69 10000 2 319 02.08.2018 14:21
45 de Nürnberg Clouds 14 1026 71 10000 6 100 02.08.2018 14:21
46 de Oberstdorf Clouds 17 1023 56 10000 6 327 02.08.2018 14:21
47 de Stuttgart Clouds 19 1024 74 10000 13 150 02.08.2018 14:22
48 de Torfhaus Clouds 13 1022 58 10000 15 233 02.08.2018 14:22
49 de Trier Clear 16 1024 49 10000 8 232 02.08.2018 14:21
50 do Santo Domingo Clouds 27 1016 94 10000 0 0 02.08.2018 14:21
51 ec San Cristobal Clouds 20 1014 86 10000 20 181 02.08.2018 14:22
52 eg Kairo Clouds 27 1014 36 10000 13 310 02.08.2018 14:22
53 es Barcelona Rain 19 1022 86 10000 13 340 02.08.2018 14:22
54 es Las Palmas de Gran Canaria Clouds 25 1017 74 10000 25 349 02.08.2018 14:21
55 es Madrid Clear 20 1024 59 10000 6 0 02.08.2018 14:23
56 es Palma de Mallorca Clouds 25 1020 67 4000 17 220 02.08.2018 14:22
57 es Sevilla Clear 28 1017 43 10000 19 60 02.08.2018 14:22
58 es Tarifa Clouds 22 1018 75 10000 35 87 02.08.2018 14:21
59 et Addis Abeba Clouds 20 1023 60 10000 29 110 02.08.2018 14:23
60 fi Helsinki Clouds 15 1011 75 10000 26 230 02.08.2018 14:21
61 fi Rovaniemi Clouds 10 994 71 10000 28 220 02.08.2018 14:21
62 fj Suva Clouds 23 1015 88 10000 22 20 02.08.2018 14:21
63 fr Bordeaux Clear 22 1023 64 10000 13 120 02.08.2018 14:21
64 fr Nizza Clouds 24 1022 64 10000 13 190 02.08.2018 14:22
65 fr Paris Clear 18 1023 52 10000 9 0 02.08.2018 14:22
66 gb Glasgow Rain 11 1010 79 10000 19 250 02.08.2018 14:21
67 gb London Clouds 18 1018 64 10000 22 230 02.08.2018 14:22
68 gb Manchester Rain 13 1012 86 6000 22 210 02.08.2018 14:21
69 gl Nuuk Snow -1 1003 100 10000 9 40 02.08.2018 14:22
70 gr Athen Clouds 22 1019 49 10000 23 54 02.08.2018 14:22
71 id Jakarta Rain 26 1010 88 10000 20 251 02.08.2018 14:22
72 ie Dublin Clouds 15 1013 73 10000 34 260 02.08.2018 14:21
73 in Jagatsukh Clear 19 1015 66 10000 11 191 02.08.2018 14:22
74 in Mumbai Thunderstorm 26 1003 94 1000 19 220 02.08.2018 14:22
75 in Nagpur Clouds 29 1006 74 3000 19 150 02.08.2018 14:21
76 iq Bagdad Clear 42 1007 9 10000 15 260 02.08.2018 14:22
77 is Reykjavik Clear 5 1002 70 10000 22 360 02.08.2018 14:22
78 it Mailand Clear 23 1025 62 10000 4 0 02.08.2018 14:21
79 it Palermo Clear 26 1001 28 10000 6 7 02.08.2018 14:22
80 it Rom Clear 25 1022 48 10000 6 0 02.08.2018 14:23
81 jp Nagasaki Clouds 18 1018 72 10000 13 350 02.08.2018 14:21
82 jp Tokio Mist 13 1012 94 4000 33 320 02.08.2018 14:22
83 ke Nairobi Clouds 23 1021 43 10000 11 120 02.08.2018 14:22
84 kr Seoul Clouds 13 1023 56 10000 9 330 02.08.2018 14:21
85 ma Casablanca Clouds 25 1014 78 5000 9 10 02.08.2018 14:23
86 ma Marrakesch Clouds 31 1015 30 8000 7 330 02.08.2018 14:23
87 mg Antananarivo Clouds 25 1021 31 10000 22 150 02.08.2018 14:21
88 mn Ulaanbaatar Clouds 1 1019 51 10000 18 360 02.08.2018 14:23
89 mn Uliastai Clouds -7 1036 67 10000 11 40 02.08.2018 14:23
90 mv Male Clouds 29 1008 74 10000 26 290 02.08.2018 14:23
91 mx Mexiko Stadt Clouds 14 1023 84 10000 7 10 02.08.2018 14:21
92 mx Veracruz Clouds 23 1016 80 10000 5 234 02.08.2018 14:21
93 no Hammerfest Rain 8 980 76 10000 56 240 02.08.2018 14:22
94 no Oslo Clouds 15 1001 1 10000 26 205 02.08.2018 14:23
95 nz Wellington Clouds 6 1035 87 10000 6 20 02.08.2018 14:23
96 pe Cusco Clouds 10 1033 62 10000 4 0 02.08.2018 14:23
97 pg Port Moresby Clouds 25 1008 88 10000 9 350 02.08.2018 14:21
98 ph Manila Clouds 29 1009 75 10000 9 110 02.08.2018 14:21
99 pt Lissabon Clear 25 1018 58 10000 18 135 02.08.2018 14:22
100 qa Doha Clear 34 1005 59 10000 15 110 02.08.2018 14:23
101 ru Amderma Clouds 5 997 90 10000 22 178 02.08.2018 14:23
102 ru Anadyr Clouds -2 1002 80 10000 18 260 02.08.2018 14:23
103 ru Jakutsk Clouds -3 1020 63 10000 11 300 02.08.2018 14:22
104 ru Moskau Clouds 13 1022 65 10000 20 261 02.08.2018 14:22
105 ru Surgut Clear 9 1008 61 10000 14 190 02.08.2018 14:23
106 ru Werchojansk Clouds -10 1014 91 10000 11 178 02.08.2018 14:22
107 sa Riad Clear 37 1008 8 10000 4 340 02.08.2018 14:21
108 sb Honiara Clouds 26 1011 87 10000 9 114 02.08.2018 14:22
109 se Stockholm Clouds 15 1008 80 10000 22 210 02.08.2018 14:23
110 th Bangkok Rain 26 1009 78 10000 18 163 02.08.2018 14:21
111 tr Alanya Clear 31 1010 29 10000 13 286 02.08.2018 14:22
112 tr Ankara Clouds 14 1018 64 10000 15 50 02.08.2018 14:23
113 tr Istanbul Clouds 20 1020 52 10000 33 20 02.08.2018 14:23
114 ua Kiew Clear 18 1027 63 10000 2 353 02.08.2018 14:21
115 us Chicago Rain 7 1027 79 10000 19 340 02.08.2018 14:23
116 us Death Valley Clear 27 1016 23 10000 2 5 02.08.2018 14:22
117 us Denver Clear 7 1028 90 10000 6 69 02.08.2018 14:21
118 us Fairbanks Clouds 6 1013 73 10000 6 80 02.08.2018 14:23
119 us Honolulu Clouds 24 1014 81 10000 6 290 02.08.2018 14:22
120 us Las Vegas Clear 22 1019 27 10000 19 60 02.08.2018 14:21
121 us Los Angeles Mist 19 1020 85 8047 9 150 02.08.2018 14:22
122 us Miami Clouds 23 1018 80 10000 9 360 02.08.2018 14:23
123 us New York Fog 15 1015 85 10000 11 360 02.08.2018 14:22
124 us Nome Rain 4 1007 81 10000 46 250 02.08.2018 14:23
125 us Tucson Clear 19 1019 61 10000 20 120 02.08.2018 14:21
126 uy Montevideo Clear 16 1008 61 10000 19 240 02.08.2018 14:22
127 vn Hanoi Clouds 27 1013 82 10000 11 141 02.08.2018 14:21
128 za Kapstadt Clear 21 1022 47 10000 20 190 02.08.2018 14:22